,,Stat6,,Stat2,,Stat8,,Stat9,,Stat10,,Wind1,,Wind1,
time,status,PA1M_AVG,status,PR1M_SUM,status,RH1M_AVG,status,SR1M_AVG,status,TA1M_AVG,status,W1dAve1m,status,W1sAve1m,
2007-06-05, 00:00:00,VALID,916.926,VALID,0,VALID,100,VALID,-0.0849042,VALID,20.1441,VALID,129,VALID,0.897507,
2007-06-05, 00:01:00,VALID,916.906,VALID,0,VALID,100,VALID,-0.0679233,VALID,20.1379,VALID,128,VALID,0.814499,
2007-06-05, 00:02:00,VALID,916.883,VALID,0,VALID,100,VALID,-0.0339617,VALID,20.1311,VALID,129,VALID,0.638281,
2007-06-05, 00:03:00,VALID,916.878,VALID,0,VALID,100,VALID,-0.0849042,VALID,20.1349,VALID,129,VALID,0.719512,
2007-06-05, 00:04:00,VALID,916.864,VALID,0,VALID,100,VALID,-0.0679233,VALID,20.1251,VALID,129,VALID,0.619271,
2007-06-05, 00:05:00,VALID,916.836,VALID,0,VALID,100,VALID,-0.0849042,VALID,20.1186,VALID,129,VALID,0.539825,
2007-06-05, 00:06:00,VALID,916.809,VALID,0,VALID,100,VALID,-0.101885,VALID,20.1151,VALID,129,VALID,0.670541,
2007-06-05, 00:07:00,VALID,916.794,VALID,0,VALID,100,VALID,-0.0679233,VALID,20.1116,VALID,129,VALID,0.652798,
2007-06-05, 00:08:00,VALID,916.767,VALID,0,VALID,100,VALID,-0.101885,VALID,20.1159,VALID,129,VALID,0.831745,
2007-06-05, 00:09:00,VALID,916.746,VALID,0,VALID,100,VALID,-0.0509425,VALID,20.0922,VALID,132,VALID,0.731898,
2007-06-05, 00:10:00,VALID,916.731,VALID,0,VALID,100,VALID,-0.0849042,VALID,20.1064,VALID,133,VALID,0.524581,
2007-06-05, 00:11:00,VALID,916.711,VALID,0,VALID,100,VALID,-0.0679233,VALID,20.0924,VALID,133,VALID,0.541481,
2007-06-05, 00:12:00,VALID,916.701,VALID,0,VALID,100,VALID,-0.101885,VALID,20.0932,VALID,133,VALID,0.537642,
2007-06-05, 00:13:00,VALID,916.68,VALID,0,VALID,100,VALID,-0.101885,VALID,20.0932,VALID,129,VALID,0.554688,
2007-06-05, 00:14:00,VALID,916.665,VALID,0,VALID,100,VALID,-0.0339617,VALID,20.0819,VALID,108,VALID,0.466694,
2007-06-05, 00:15:00,VALID,916.663,VALID,0.2,VALID,100,VALID,0,VALID,20.0784,VALID,107,VALID,0.558594,
2007-06-05, 00:16:00,VALID,916.649,VALID,0,VALID,100,VALID,-0.0169808,VALID,20.0787,VALID,120,VALID,0.615282,
2007-06-05, 00:17:00,VALID,916.652,VALID,0,VALID,100,VALID,0,VALID,20.0717,VALID,120,VALID,0.551448,
2007-06-05, 00:18:00,VALID,916.639,VALID,0,VALID,100,VALID,0,VALID,20.0752,VALID,112,VALID,0.677912,
2007-06-05, 00:19:00,VALID,916.633,VALID,0,VALID,100,VALID,0.0679233,VALID,20.0649,VALID,108,VALID,0.745028,
2007-06-05, 00:20:00,VALID,916.613,VALID,0,VALID,100,VALID,0.0339617,VALID,20.0515,VALID,109,VALID,0.568216,
2007-06-05, 00:21:00,VALID,916.615,VALID,0,VALID,100,VALID,0.0509425,VALID,20.0622,VALID,112,VALID,0.791349,
2007-06-05, 00:22:00,VALID,916.605,VALID,0,VALID,100,VALID,-0.0169808,VALID,20.056,VALID,112,VALID,0.708079,
2007-06-05, 00:23:00,VALID,916.594,VALID,0,VALID,100,VALID,0,VALID,20.039,VALID,111,VALID,0.842188,
2007-06-05, 00:24:00,VALID,916.579,VALID,0,VALID,100,VALID,0.0339617,VALID,20.0392,VALID,99,VALID,0.814596,
2007-06-05, 00:25:00,VALID,916.57,VALID,0,VALID,100,VALID,0,VALID,20.0362,VALID,93,VALID,0.690739,
2007-06-05, 00:26:00,VALID,916.547,VALID,0,VALID,100,VALID,0,VALID,20.0462,VALID,85,VALID,0.737805,
2007-06-05, 00:27:00,VALID,916.543,VALID,0,VALID,100,VALID,0.0169808,VALID,20.0268,VALID,76,VALID,0.62314,
2007-06-05, 00:28:00,VALID,916.529,VALID,0,VALID,100,VALID,-0.0169808,VALID,20.0233,VALID,76,VALID,0.788681,
2007-06-05, 00:29:00,VALID,916.497,VALID,0,VALID,100,VALID,0.0169808,VALID,20.0135,VALID,76,VALID,0.672619,
2007-06-05, 00:30:00,VALID,916.478,VALID,0,VALID,100,VALID,0.0169808,VALID,20.014,VALID,76,VALID,0.745994,
2007-06-05, 00:31:00,VALID,916.456,VALID,0,VALID,100,VALID,0,VALID,20.0038,VALID,76,VALID,0.563802,
2007-06-05, 00:32:00,VALID,916.439,VALID,0,VALID,100,VALID,0.0169808,VALID,20.0103,VALID,59,VALID,0.627604,
2007-06-05, 00:33:00,VALID,916.403,VALID,0,VALID,100,VALID,0,VALID,20.0076,VALID,56,VALID,0.441602,
2007-06-05, 00:34:00,VALID,916.385,VALID,0,VALID,100,VALID,0.0169808,VALID,19.9938,VALID,56,VALID,0.387386,
2007-06-05, 00:35:00,VALID,916.367,VALID,0,VALID,100,VALID,0,VALID,19.9838,VALID,56,VALID,0.0427827,
2007-06-05, 00:36:00,VALID,916.352,VALID,0.2,VALID,100,VALID,0,VALID,19.9871,VALID,56,VALID,0.0319444,
2007-06-05, 00:37:00,VALID,916.338,VALID,0,VALID,100,VALID,0,VALID,19.9976,VALID,56,VALID,0,
2007-06-05, 00:38:00,VALID,916.318,VALID,0,VALID,100,VALID,-0.0169808,VALID,19.9848,VALID,56,VALID,0,
2007-06-05, 00:39:00,VALID,916.298,VALID,0,VALID,100,VALID,0,VALID,19.9873,VALID,56,VALID,0.111737,
2007-06-05, 00:40:00,VALID,916.282,VALID,0,VALID,100,VALID,0,VALID,19.9876,VALID,56,VALID,0.230183,
2007-06-05, 00:41:00,VALID,916.264,VALID,0,VALID,100,VALID,-0.0169808,VALID,19.9741,VALID,56,VALID,0.446646,
2007-06-05, 00:42:00,VALID,916.248,VALID,0,VALID,100,VALID,0,VALID,19.9749,VALID,56,VALID,0.64668,
2007-06-05, 00:43:00,VALID,916.211,VALID,0,VALID,100,VALID,0.0169808,VALID,19.9584,VALID,63,VALID,0.64968,
2007-06-05, 00:44:00,VALID,916.185,VALID,0,VALID,100,VALID,0.0169808,VALID,19.9489,VALID,64,VALID,0.659598,
2007-06-05, 00:45:00,VALID,916.166,VALID,0,VALID,100,VALID,0.0169808,VALID,19.9489,VALID,64,VALID,0.743304,
2007-06-05, 00:46:00,VALID,916.157,VALID,0,VALID,100,VALID,-0.0169808,VALID,19.9424,VALID,64,VALID,0.698847,
2007-06-05, 00:47:00,VALID,916.151,VALID,0,VALID,100,VALID,0,VALID,19.9491,VALID,64,VALID,0.595567,
2007-06-05, 00:48:00,VALID,916.151,VALID,0,VALID,100,VALID,0,VALID,19.9459,VALID,64,VALID,0.505087,
2007-06-05, 00:49:00,VALID,916.139,VALID,0,VALID,100,VALID,0,VALID,19.9456,VALID,64,VALID,0.480923,
2007-06-05, 00:50:00,VALID,916.124,VALID,0,VALID,100,VALID,0,VALID,19.9362,VALID,66,VALID,0.730469,
2007-06-05, 00:51:00,VALID,916.12,VALID,0,VALID,100,VALID,-0.0169808,VALID,19.9132,VALID,90,VALID,0.816315,
2007-06-05, 00:52:00,VALID,916.104,VALID,0,VALID,100,VALID,-0.0509425,VALID,19.8937,VALID,95,VALID,0.642531,
2007-06-05, 00:53:00,VALID,916.096,VALID,0,VALID,100,VALID,0,VALID,19.8905,VALID,103,VALID,0.755504,
2007-06-05, 00:54:00,VALID,916.095,VALID,0,VALID,100,VALID,0,VALID,19.8738,VALID,103,VALID,0.603125,
2007-06-05, 00:55:00,VALID,916.079,VALID,0,VALID,100,VALID,-0.0169808,VALID,19.8775,VALID,101,VALID,0.558866,
2007-06-05, 00:56:00,VALID,916.065,VALID,0,VALID,100,VALID,0.0169808,VALID,19.874,VALID,103,VALID,0.53452,
2007-06-05, 00:57:00,VALID,916.045,VALID,0,VALID,100,VALID,0,VALID,19.8738,VALID,100,VALID,0.372396,
2007-06-05, 00:58:00,VALID,916.03,VALID,0,VALID,100,VALID,0,VALID,19.8837,VALID,99,VALID,0.372792,
2007-06-05, 00:59:00,VALID,916.012,VALID,0,VALID,100,VALID,0.0169808,VALID,19.8835,VALID,98,VALID,0.347479,
2007-06-05, 01:00:00,VALID,915.979,VALID,0,VALID,100,VALID,0.0169808,VALID,19.8805,VALID,99,VALID,0.595881,
2007-06-05, 01:01:00,VALID,915.966,VALID,0,VALID,100,VALID,0,VALID,19.8705,VALID,103,VALID,0.677024,
2007-06-05, 01:02:00,VALID,915.939,VALID,0,VALID,100,VALID,0,VALID,19.864,VALID,113,VALID,0.435826,
2007-06-05, 01:03:00,VALID,915.917,VALID,0,VALID,100,VALID,0,VALID,19.8513,VALID,124,VALID,0.618676,
2007-06-05, 01:04:00,VALID,915.895,VALID,0,VALID,100,VALID,0.0169808,VALID,19.8478,VALID,144,VALID,0.731898,
2007-06-05, 01:05:00,VALID,915.865,VALID,0,VALID,100,VALID,0,VALID,19.8446,VALID,143,VALID,0.887173,
2007-06-05, 01:06:00,VALID,915.855,VALID,0,VALID,100,VALID,-0.0169808,VALID,19.8516,VALID,141,VALID,0.78125,
2007-06-05, 01:07:00,VALID,915.833,VALID,0,VALID,100,VALID,0,VALID,19.8313,VALID,131,VALID,0.794457,
2007-06-05, 01:08:00,VALID,915.805,VALID,0,VALID,100,VALID,0.0169808,VALID,19.8283,VALID,132,VALID,0.668899,
2007-06-05, 01:09:00,VALID,915.797,VALID,0,VALID,100,VALID,-0.0169808,VALID,19.8221,VALID,130,VALID,1.00176,
2007-06-05, 01:10:00,VALID,915.779,VALID,0,VALID,100,VALID,0,VALID,19.7924,VALID,130,VALID,0.756138,
2007-06-05, 01:11:00,VALID,915.766,VALID,0,VALID,100,VALID,0,VALID,19.7864,VALID,134,VALID,1.01261,
2007-06-05, 01:12:00,VALID,915.754,VALID,0,VALID,100,VALID,0.0169808,VALID,19.75,VALID,131,VALID,1.12922,
2007-06-05, 01:13:00,VALID,915.752,VALID,0,VALID,100,VALID,0,VALID,19.741,VALID,123,VALID,0.867369,
2007-06-05, 01:14:00,VALID,915.745,VALID,0,VALID,100,VALID,0,VALID,19.705,VALID,119,VALID,1.17845,
2007-06-05, 01:15:00,VALID,915.732,VALID,0,VALID,100,VALID,0.0509425,VALID,19.6886,VALID,111,VALID,0.849466,
2007-06-05, 01:16:00,VALID,915.724,VALID,0,VALID,100,VALID,0.0339617,VALID,19.6689,VALID,117,VALID,1.19386,
2007-06-05, 01:17:00,VALID,915.708,VALID,0,VALID,100,VALID,0.0679233,VALID,19.6656,VALID,117,VALID,1.07031,
2007-06-05, 01:18:00,VALID,915.694,VALID,0,VALID,100,VALID,0.0509425,VALID,19.6589,VALID,126,VALID,1.20382,
2007-06-05, 01:19:00,VALID,915.685,VALID,0,VALID,100,VALID,0.0849042,VALID,19.6978,VALID,133,VALID,1.3105,
2007-06-05, 01:20:00,VALID,915.695,VALID,0,VALID,100,VALID,0.0509425,VALID,19.7208,VALID,130,VALID,1.24467,
2007-06-05, 01:21:00,VALID,915.676,VALID,0,VALID,100,VALID,0.0509425,VALID,19.727,VALID,140,VALID,1.19186,
2007-06-05, 01:22:00,VALID,915.674,VALID,0,VALID,100,VALID,0.0509425,VALID,19.7532,VALID,141,VALID,0.765067,
2007-06-05, 01:23:00,VALID,915.665,VALID,0,VALID,100,VALID,0.0849042,VALID,19.7627,VALID,124,VALID,0.729288,
2007-06-05, 01:24:00,VALID,915.657,VALID,0,VALID,100,VALID,0.0679233,VALID,19.7719,VALID,137,VALID,0.606326,
2007-06-05, 01:25:00,VALID,915.641,VALID,0,VALID,100,VALID,0.0679233,VALID,19.7789,VALID,136,VALID,0.154474,
2007-06-05, 01:26:00,VALID,915.64,VALID,0,VALID,100,VALID,0.0509425,VALID,19.7757,VALID,117,VALID,0.518787,
2007-06-05, 01:27:00,VALID,915.645,VALID,0,VALID,100,VALID,0.0679233,VALID,19.7624,VALID,112,VALID,0.758398,
2007-06-05, 01:28:00,VALID,915.655,VALID,0,VALID,100,VALID,0.0339617,VALID,19.7659,VALID,134,VALID,0.906622,
2007-06-05, 01:29:00,VALID,915.649,VALID,0,VALID,100,VALID,-0.0169808,VALID,19.7669,VALID,138,VALID,0.826172,
2007-06-05, 01:30:00,VALID,915.646,VALID,0,VALID,100,VALID,-0.0169808,VALID,19.7674,VALID,133,VALID,0.740734,
2007-06-05, 01:31:00,VALID,915.633,VALID,0,VALID,100,VALID,-0.0339617,VALID,19.7707,VALID,129,VALID,0.813244,
2007-06-05, 01:32:00,VALID,915.635,VALID,0,VALID,100,VALID,-0.0169808,VALID,19.7577,VALID,128,VALID,0.908794,
2007-06-05, 01:33:00,VALID,915.645,VALID,0,VALID,100,VALID,-0.0509425,VALID,19.7652,VALID,130,VALID,0.727095,
2007-06-05, 01:34:00,VALID,915.63,VALID,0,VALID,100,VALID,-0.0169808,VALID,19.7482,VALID,135,VALID,0.523438,
2007-06-05, 01:35:00,VALID,915.608,VALID,0,VALID,100,VALID,-0.0679233,VALID,19.7318,VALID,142,VALID,0.737282,
2007-06-05, 01:36:00,VALID,915.6,VALID,0,VALID,100,VALID,-0.0509425,VALID,19.719,VALID,152,VALID,0.881669,
2007-06-05, 01:37:00,VALID,915.586,VALID,0,VALID,100,VALID,-0.0679233,VALID,19.7025,VALID,149,VALID,0.738186,
2007-06-05, 01:38:00,VALID,915.575,VALID,0,VALID,100,VALID,-0.0509425,VALID,19.7028,VALID,151,VALID,0.566051,
2007-06-05, 01:39:00,VALID,915.56,VALID,0,VALID,100,VALID,-0.0509425,VALID,19.6993,VALID,149,VALID,0.0755208,
2007-06-05, 01:40:00,VALID,915.559,VALID,0,VALID,100,VALID,-0.0509425,VALID,19.6993,VALID,149,VALID,0.0369665,
2007-06-05, 01:41:00,VALID,915.561,VALID,0,VALID,100,VALID,-0.0679233,VALID,19.6961,VALID,149,VALID,0.0759448,
2007-06-05, 01:42:00,VALID,915.54,VALID,0,VALID,100,VALID,-0.101885,VALID,19.7028,VALID,149,VALID,0.0133929,
2007-06-05, 01:43:00,VALID,915.552,VALID,0,VALID,100,VALID,-0.0169808,VALID,19.7028,VALID,149,VALID,0.0910823,
2007-06-05, 01:44:00,VALID,915.542,VALID,0,VALID,100,VALID,-0.0679233,VALID,19.6993,VALID,149,VALID,0.125586,
2007-06-05, 01:45:00,VALID,915.545,VALID,0,VALID,100,VALID,-0.0509425,VALID,19.7028,VALID,149,VALID,0.103423,
2007-06-05, 01:46:00,VALID,915.541,VALID,0,VALID,100,VALID,-0.0339617,VALID,19.7095,VALID,149,VALID,0.00111607,
2007-06-05, 01:47:00,VALID,915.535,VALID,0,VALID,100,VALID,-0.0509425,VALID,19.7063,VALID,149,VALID,0.102628,
2007-06-05, 01:48:00,VALID,915.529,VALID,0,VALID,100,VALID,-0.0509425,VALID,19.7025,VALID,149,VALID,0.411882,
2007-06-05, 01:49:00,VALID,915.516,VALID,0,VALID,100,VALID,-0.0339617,VALID,19.709,VALID,149,VALID,0.429878,
2007-06-05, 01:50:00,VALID,915.525,VALID,0,VALID,100,VALID,0,VALID,19.7188,VALID,149,VALID,0.383539,
2007-06-05, 01:51:00,VALID,915.528,VALID,0,VALID,100,VALID,-0.0339617,VALID,19.7258,VALID,149,VALID,0.267721,
2007-06-05, 01:52:00,VALID,915.529,VALID,0,VALID,100,VALID,-0.0509425,VALID,19.706,VALID,149,VALID,0.550305,
2007-06-05, 01:53:00,VALID,915.529,VALID,0,VALID,100,VALID,-0.0339617,VALID,19.7025,VALID,149,VALID,0.639137,
2007-06-05, 01:54:00,VALID,915.527,VALID,0,VALID,100,VALID,-0.0679233,VALID,19.6866,VALID,149,VALID,0.341442,
2007-06-05, 01:55:00,VALID,915.53,VALID,0,VALID,100,VALID,-0.0169808,VALID,19.6733,VALID,149,VALID,0.220703,
2007-06-05, 01:56:00,VALID,915.527,VALID,0,VALID,100,VALID,-0.0339617,VALID,19.6701,VALID,147,VALID,0.630394,
2007-06-05, 01:57:00,VALID,915.526,VALID,0,VALID,100,VALID,-0.0849042,VALID,19.6706,VALID,150,VALID,0.525298,
2007-06-05, 01:58:00,VALID,915.508,VALID,0,VALID,100,VALID,-0.0679233,VALID,19.6671,VALID,159,VALID,0.466332,
2007-06-05, 01:59:00,VALID,915.51,VALID,0,VALID,100,VALID,-0.0169808,VALID,19.6629,VALID,160,VALID,0.177591,
2007-06-05, 02:00:00,VALID,915.492,VALID,0,VALID,100,VALID,0.0339617,VALID,19.6526,VALID,160,VALID,0.218006,
2007-06-05, 02:01:00,VALID,915.488,VALID,0,VALID,100,VALID,0.0679233,VALID,19.6461,VALID,161,VALID,0.283654,
2007-06-05, 02:02:00,VALID,915.478,VALID,0,VALID,100,VALID,0,VALID,19.6529,VALID,162,VALID,0.0593328,
2007-06-05, 02:03:00,VALID,915.494,VALID,0,VALID,100,VALID,0,VALID,19.6429,VALID,162,VALID,0.0418527,
2007-06-05, 02:04:00,VALID,915.477,VALID,0,VALID,100,VALID,-0.0339617,VALID,19.6409,VALID,162,VALID,0.0450581,
2007-06-05, 02:05:00,VALID,915.485,VALID,0,VALID,100,VALID,-0.0679233,VALID,19.6511,VALID,162,VALID,0.0120192,
2007-06-05, 02:06:00,VALID,915.477,VALID,0,VALID,100,VALID,-0.0679233,VALID,19.6379,VALID,162,VALID,0.0614099,
2007-06-05, 02:07:00,VALID,915.477,VALID,0,VALID,100,VALID,-0.101885,VALID,19.6317,VALID,162,VALID,0.15263,
2007-06-05, 02:08:00,VALID,915.472,VALID,0,VALID,100,VALID,-0.0679233,VALID,19.6247,VALID,162,VALID,0.453307,
2007-06-05, 02:09:00,VALID,915.482,VALID,0,VALID,100,VALID,-0.0339617,VALID,19.6414,VALID,162,VALID,0.40811,
2007-06-05, 02:10:00,VALID,915.457,VALID,0,VALID,100,VALID,-0.0679233,VALID,19.6349,VALID,162,VALID,0.000381098,
2007-06-05, 02:11:00,VALID,915.453,VALID,0,VALID,100,VALID,-0.101885,VALID,19.6314,VALID,162,VALID,0.46766,
2007-06-05, 02:12:00,VALID,915.448,VALID,0,VALID,100,VALID,-0.0679233,VALID,19.6254,VALID,162,VALID,0.446456,
2007-06-05, 02:13:00,VALID,915.45,VALID,0,VALID,100,VALID,-0.0679233,VALID,19.6149,VALID,148,VALID,0.555432,
2007-06-05, 02:14:00,VALID,915.45,VALID,0,VALID,100,VALID,-0.0509425,VALID,19.6092,VALID,137,VALID,0.582122,
2007-06-05, 02:15:00,VALID,915.453,VALID,0,VALID,100,VALID,-0.0339617,VALID,19.5925,VALID,136,VALID,0.661519,
2007-06-05, 02:16:00,VALID,915.443,VALID,0,VALID,100,VALID,-0.0169808,VALID,19.576,VALID,136,VALID,0.597384,
2007-06-05, 02:17:00,VALID,915.441,VALID,0,VALID,100,VALID,-0.0339617,VALID,19.5663,VALID,147,VALID,0.248935,
2007-06-05, 02:18:00,VALID,915.444,VALID,0,VALID,100,VALID,-0.0679233,VALID,19.5765,VALID,148,VALID,0.414426,
2007-06-05, 02:19:00,VALID,915.434,VALID,0,VALID,100,VALID,-0.0509425,VALID,19.563,VALID,148,VALID,0.374809,
2007-06-05, 02:20:00,VALID,915.44,VALID,0,VALID,100,VALID,-0.0679233,VALID,19.5565,VALID,149,VALID,0.321181,
2007-06-05, 02:21:00,VALID,915.423,VALID,0,VALID,100,VALID,-0.0169808,VALID,19.5498,VALID,150,VALID,0.237926,
2007-06-05, 02:22:00,VALID,915.427,VALID,0,VALID,100,VALID,-0.0679233,VALID,19.5535,VALID,150,VALID,0.103609,
2007-06-05, 02:23:00,VALID,915.42,VALID,0,VALID,100,VALID,-0.0339617,VALID,19.5468,VALID,150,VALID,0,
2007-06-05, 02:24:00,VALID,915.413,VALID,0,VALID,100,VALID,-0.0679233,VALID,19.5471,VALID,150,VALID,0,
2007-06-05, 02:25:00,VALID,915.382,VALID,0,VALID,100,VALID,-0.0509425,VALID,19.5403,VALID,150,VALID,0,
2007-06-05, 02:26:00,VALID,915.374,VALID,0,VALID,100,VALID,-0.0509425,VALID,19.5436,VALID,150,VALID,0,
2007-06-05, 02:27:00,VALID,915.358,VALID,0,VALID,100,VALID,-0.0509425,VALID,19.5373,VALID,150,VALID,0,
2007-06-05, 02:28:00,VALID,915.351,VALID,0,VALID,100,VALID,-0.0169808,VALID,19.5306,VALID,150,VALID,0,
2007-06-05, 02:29:00,VALID,915.365,VALID,0,VALID,100,VALID,-0.0509425,VALID,19.5209,VALID,150,VALID,0.00457317,
2007-06-05, 02:30:00,VALID,915.338,VALID,0,VALID,100,VALID,-0.0169808,VALID,19.5079,VALID,150,VALID,0.16311,
2007-06-05, 02:31:00,VALID,915.349,VALID,0,VALID,100,VALID,-0.0339617,VALID,19.5046,VALID,149,VALID,0.308594,
2007-06-05, 02:32:00,VALID,915.332,VALID,0,VALID,100,VALID,-0.0339617,VALID,19.4914,VALID,146,VALID,0.345465,
2007-06-05, 02:33:00,VALID,915.327,VALID,0,VALID,100,VALID,-0.0339617,VALID,19.4949,VALID,146,VALID,0.31343,
2007-06-05, 02:34:00,VALID,915.333,VALID,0,VALID,100,VALID,0,VALID,19.4917,VALID,145,VALID,0.321484,
2007-06-05, 02:35:00,VALID,915.33,VALID,0,VALID,100,VALID,-0.0169808,VALID,19.4682,VALID,101,VALID,0.486737,
2007-06-05, 02:36:00,VALID,915.345,VALID,0,VALID,100,VALID,-0.0339617,VALID,19.446,VALID,89,VALID,0.341406,
2007-06-05, 02:37:00,VALID,915.348,VALID,0,VALID,100,VALID,-0.0339617,VALID,19.4233,VALID,89,VALID,0.346294,
2007-06-05, 02:38:00,VALID,915.353,VALID,0,VALID,100,VALID,-0.0679233,VALID,19.4073,VALID,85,VALID,0.603795,
2007-06-05, 02:39:00,VALID,915.341,VALID,0,VALID,100,VALID,-0.0509425,VALID,19.3848,VALID,56,VALID,0.778161,
2007-06-05, 02:40:00,VALID,915.325,VALID,0,VALID,100,VALID,-0.0339617,VALID,19.3651,VALID,61,VALID,0.782012,
2007-06-05, 02:41:00,VALID,915.327,VALID,0,VALID,100,VALID,-0.0679233,VALID,19.3589,VALID,62,VALID,0.868459,
2007-06-05, 02:42:00,VALID,915.322,VALID,0,VALID,100,VALID,-0.0339617,VALID,19.3524,VALID,61,VALID,0.686047,
2007-06-05, 02:43:00,VALID,915.326,VALID,0,VALID,100,VALID,-0.0509425,VALID,19.3327,VALID,61,VALID,0.607973,
2007-06-05, 02:44:00,VALID,915.335,VALID,0,VALID,100,VALID,-0.0339617,VALID,19.3327,VALID,66,VALID,0.563058,
2007-06-05, 02:45:00,VALID,915.324,VALID,0,VALID,100,VALID,-0.0169808,VALID,19.3424,VALID,66,VALID,0.276634,
2007-06-05, 02:46:00,VALID,915.33,VALID,0,VALID,100,VALID,-0.0509425,VALID,19.3327,VALID,66,VALID,0.0631649,
2007-06-05, 02:47:00,VALID,915.318,VALID,0,VALID,100,VALID,-0.0849042,VALID,19.3489,VALID,66,VALID,0.115189,
2007-06-05, 02:48:00,VALID,915.313,VALID,0,VALID,100,VALID,-0.0169808,VALID,19.3424,VALID,66,VALID,0.159446,
2007-06-05, 02:49:00,VALID,915.287,VALID,0,VALID,100,VALID,-0.0339617,VALID,19.3225,VALID,66,VALID,0.416016,
2007-06-05, 02:50:00,VALID,915.274,VALID,0,VALID,100,VALID,0,VALID,19.3195,VALID,66,VALID,0.487109,
2007-06-05, 02:51:00,VALID,915.252,VALID,0,VALID,100,VALID,-0.0169808,VALID,19.3262,VALID,70,VALID,0.632267,
2007-06-05, 02:52:00,VALID,915.245,VALID,0,VALID,100,VALID,-0.0339617,VALID,19.3165,VALID,71,VALID,0.573117,
2007-06-05, 02:53:00,VALID,915.226,VALID,0,VALID,100,VALID,-0.0169808,VALID,19.3067,VALID,71,VALID,0.673692,
2007-06-05, 02:54:00,VALID,915.22,VALID,0,VALID,100,VALID,-0.0169808,VALID,19.2935,VALID,71,VALID,0.881669,
2007-06-05, 02:55:00,VALID,915.212,VALID,0,VALID,100,VALID,0,VALID,19.274,VALID,71,VALID,0.941692,
2007-06-05, 02:56:00,VALID,915.196,VALID,0,VALID,100,VALID,-0.0339617,VALID,19.2613,VALID,71,VALID,0.742399,
2007-06-05, 02:57:00,VALID,915.183,VALID,0,VALID,100,VALID,-0.0509425,VALID,19.2583,VALID,67,VALID,0.684152,
2007-06-05, 02:58:00,VALID,915.169,VALID,0,VALID,100,VALID,-0.0679233,VALID,19.2449,VALID,58,VALID,0.603693,
2007-06-05, 02:59:00,VALID,915.165,VALID,0,VALID,100,VALID,0.0169808,VALID,19.2509,VALID,58,VALID,0.507813,
2007-06-05, 03:00:00,VALID,915.14,VALID,0,VALID,100,VALID,0.0169808,VALID,19.2566,VALID,58,VALID,0.350818,
2007-06-05, 03:01:00,VALID,915.128,VALID,0,VALID,100,VALID,0.0339617,VALID,19.2501,VALID,58,VALID,0.182106,
2007-06-05, 03:02:00,VALID,915.119,VALID,0,VALID,100,VALID,-0.0169808,VALID,19.2509,VALID,58,VALID,0.372275,
2007-06-05, 03:03:00,VALID,915.106,VALID,0,VALID,100,VALID,-0.0169808,VALID,19.2339,VALID,59,VALID,0.364702,
2007-06-05, 03:04:00,VALID,915.101,VALID,0,VALID,100,VALID,0.0339617,VALID,19.2371,VALID,70,VALID,0.42569,
2007-06-05, 03:05:00,VALID,915.105,VALID,0,VALID,100,VALID,0.0169808,VALID,19.2406,VALID,74,VALID,0.490327,
2007-06-05, 03:06:00,VALID,915.116,VALID,0,VALID,100,VALID,0,VALID,19.2339,VALID,80,VALID,0.53105,
2007-06-05, 03:07:00,VALID,915.102,VALID,0,VALID,100,VALID,0.0339617,VALID,19.2307,VALID,87,VALID,0.633523,
2007-06-05, 03:08:00,VALID,915.101,VALID,0,VALID,100,VALID,0.0169808,VALID,19.2309,VALID,106,VALID,0.753348,
2007-06-05, 03:09:00,VALID,915.104,VALID,0,VALID,100,VALID,0.0339617,VALID,19.2247,VALID,105,VALID,0.598586,
2007-06-05, 03:10:00,VALID,915.108,VALID,0,VALID,100,VALID,0.0169808,VALID,19.2179,VALID,102,VALID,0.628815,
2007-06-05, 03:11:00,VALID,915.106,VALID,0,VALID,100,VALID,-0.0169808,VALID,19.2277,VALID,102,VALID,0.68045,
2007-06-05, 03:12:00,VALID,915.1,VALID,0,VALID,100,VALID,0,VALID,19.2207,VALID,103,VALID,0.670573,
2007-06-05, 03:13:00,VALID,915.106,VALID,0,VALID,100,VALID,0.0169808,VALID,19.2207,VALID,104,VALID,0.525436,
2007-06-05, 03:14:00,VALID,915.097,VALID,0,VALID,100,VALID,0,VALID,19.2212,VALID,104,VALID,0.421875,
2007-06-05, 03:15:00,VALID,915.083,VALID,0,VALID,100,VALID,0.0169808,VALID,19.2281,VALID,104,VALID,0.375,
2007-06-05, 03:16:00,VALID,915.09,VALID,0,VALID,100,VALID,0.0339617,VALID,19.2209,VALID,104,VALID,0.254112,
2007-06-05, 03:17:00,VALID,915.081,VALID,0,VALID,100,VALID,0.0339617,VALID,19.2174,VALID,104,VALID,0.290968,
2007-06-05, 03:18:00,VALID,915.095,VALID,0,VALID,100,VALID,0.0169808,VALID,19.2142,VALID,104,VALID,0.434304,
2007-06-05, 03:19:00,VALID,915.1,VALID,0,VALID,100,VALID,0.0169808,VALID,19.2279,VALID,104,VALID,0.619318,
2007-06-05, 03:20:00,VALID,915.119,VALID,0,VALID,100,VALID,0.0339617,VALID,19.2045,VALID,104,VALID,0.564198,
2007-06-05, 03:21:00,VALID,915.132,VALID,0,VALID,100,VALID,0.0679233,VALID,19.1788,VALID,104,VALID,0.501143,
2007-06-05, 03:22:00,VALID,915.141,VALID,0,VALID,100,VALID,0.0169808,VALID,19.1625,VALID,104,VALID,0.580487,
2007-06-05, 03:23:00,VALID,915.161,VALID,0,VALID,100,VALID,0.0509425,VALID,19.1526,VALID,103,VALID,0.489644,
2007-06-05, 03:24:00,VALID,915.183,VALID,0,VALID,100,VALID,-0.0169808,VALID,19.1466,VALID,103,VALID,0.464935,
2007-06-05, 03:25:00,VALID,915.206,VALID,0,VALID,100,VALID,0,VALID,19.1303,VALID,103,VALID,0.397166,
2007-06-05, 03:26:00,VALID,915.232,VALID,0,VALID,100,VALID,-0.0169808,VALID,19.1303,VALID,103,VALID,0.72603,
2007-06-05, 03:27:00,VALID,915.26,VALID,0,VALID,100,VALID,0.0339617,VALID,19.1561,VALID,104,VALID,0.864462,
2007-06-05, 03:28:00,VALID,915.277,VALID,0,VALID,100,VALID,0.0509425,VALID,19.1561,VALID,110,VALID,0.939406,
2007-06-05, 03:29:00,VALID,915.265,VALID,0,VALID,100,VALID,-0.0169808,VALID,19.1735,VALID,125,VALID,0.957031,
2007-06-05, 03:30:00,VALID,915.267,VALID,0,VALID,100,VALID,-0.101885,VALID,19.1577,VALID,128,VALID,1.04278,
2007-06-05, 03:31:00,VALID,915.254,VALID,0,VALID,100,VALID,-0.101885,VALID,19.1612,VALID,130,VALID,1.12843,
2007-06-05, 03:32:00,VALID,915.253,VALID,0,VALID,100,VALID,-0.0679233,VALID,19.1515,VALID,131,VALID,1.06287,
2007-06-05, 03:33:00,VALID,915.261,VALID,0,VALID,100,VALID,-0.0849042,VALID,19.148,VALID,135,VALID,1.10957,
2007-06-05, 03:34:00,VALID,915.25,VALID,0,VALID,100,VALID,-0.101885,VALID,19.1515,VALID,137,VALID,1.12534,
2007-06-05, 03:35:00,VALID,915.258,VALID,0,VALID,100,VALID,-0.101885,VALID,19.1448,VALID,134,VALID,0.934261,
2007-06-05, 03:36:00,VALID,915.258,VALID,0,VALID,100,VALID,-0.0679233,VALID,19.1348,VALID,135,VALID,1.03144,
2007-06-05, 03:37:00,VALID,915.276,VALID,0,VALID,100,VALID,-0.0679233,VALID,19.1283,VALID,135,VALID,0.854651,
2007-06-05, 03:38:00,VALID,915.268,VALID,0,VALID,100,VALID,-0.0339617,VALID,19.135,VALID,134,VALID,0.85883,
2007-06-05, 03:39:00,VALID,915.283,VALID,0,VALID,100,VALID,-0.0679233,VALID,19.1248,VALID,134,VALID,0.730097,